Regional Weather Roundup
Issued by NWS Huntsville, AL

Home | Current Version | Previous Version | Text Only | Print | Product List | Glossary On
Versions: 1 2 3 4 5 6 7 8 9 10 11 12 13 14 15 16 17 18 19 20 21 22 23 24 25 26 27 28 29 30 31 32 33 34 35 36 37 38 39 40 41 42 43 44 45 46 47 48 49 50
000
ASUS44 KHUN 190910
RWRHUN

WEATHER ROUNDUP FOR THE TENNESSEE VALLEY
NATIONAL WEATHER SERVICE HUNTSVILLE AL
400 AM CDT FRI SEP 19 2014

ALZ001>004-191000-
NORTHWEST ALABAMA

CITY           SKY/WX    TMP DP  RH WIND       PRES   REMARKS
SHOALS AIRPORT PTCLDY    66  63  90 CALM      30.00F
SHOALS TVA RES   N/A     66 N/A N/A MISG        N/A
$$

ALZ005>007-016-191000-
NORTH CENTRAL ALABAMA

CITY           SKY/WX    TMP DP  RH WIND       PRES   REMARKS
DECATUR AP     CLOUDY    66  61  84 E5        30.01S
HUNTSVILLE AP  CLOUDY    67  61  81 E6        30.00F
HUN NWS/UAH      N/A     66  59  78 NE2         N/A
MERIDIANVILLE  CLEAR     61  55  82 CALM      30.02F
VINEMONT AP    FAIR      65  64  96 CALM      30.03S FOG
$$

ALZ008>010-191000-
NORTHEAST ALABAMA

CITY           SKY/WX    TMP DP  RH WIND       PRES   REMARKS
ALBERTVILLE    PTCLDY    64  64 100 N3        30.01F
FORT PAYNE     PTCLDY    61  55  82 CALM      30.01S
SCOTTSBORO AP  MOCLDY    64  61  88 CALM      30.03S
SCOTTSBORO HCN   N/A     63 N/A N/A MISG        N/A
VALLEY HEAD      N/A     61 N/A N/A MISG        N/A
$$

TNZ076-096-097-191000-
SOUTHEASTERN MIDDLE TENNESSEE

CITY           SKY/WX    TMP DP  RH WIND       PRES   REMARKS
FAYETTEVILLE   CLEAR     59  57  94 NE3       30.03S
TULLAHOMA      PTCLDY    63  57  82 CALM      30.04S
WINCHESTER     CLEAR     61  57  88 CALM      30.04R
$$

...SURROUNDING SITES...

CITY           SKY/WX    TMP DP  RH WIND       PRES   REMARKS
ATLANTA        CLOUDY    70  66  87 CALM      30.02R
ANNISTON       CLOUDY    69  67  93 CALM      29.99F
BIRMINGHAM     CLOUDY    70  65  84 NE3       30.00F
CHATTANOOGA    CLEAR     64  59  83 N3        30.04S
CORINTH        FOG       66  64  94 CALM      29.98F VSB<1/4
DALTON         MOCLDY    61  61 100 CALM      30.03S
GADSDEN        MOCLDY    66  61  82 CALM      30.00F
GOLDEN TRNGL   CLOUDY    68  64  88 NE5       29.97S
HALEYVILLE     FAIR      66  66 100 CALM      30.02F
JACKSON TN     CLEAR     61  58  90 CALM      30.00F
LEWISBURG      FAIR      58  57  96 CALM      30.03S
MEMPHIS        PTCLDY    69  66  90 CALM      29.99R
MURFREESBORO   CLOUDY    60  58  93 CALM      30.03S
NASHVILLE      PTCLDY    61  58  90 NE5       30.04S
OXFORD MS      FAIR      63  63 100 CALM      30.00S FOG
ROME           MOCLDY    63  60  90 CALM      30.02R
SAVANNAH       CLEAR     63  63 100 CALM      30.00S
TUPELO         FOG       67  66  97 CALM      29.97F VSB 1/2
TUSCALOOSA     CLOUDY    70  68  93 CALM      29.96S
$$

...GULF COAST WEATHER...

CITY           SKY/WX    TMP DP  RH WIND       PRES   REMARKS
GULFPORT       LGT RAIN  72  69  90 NE3       29.90F
PASCAGOULA     LGT RAIN  70  69  97 CALM      29.91F
MOBILE         CLOUDY    71  69  93 CALM      29.92F
GULF SHORES    DRIZZLE   72  68  88 CALM      29.91S
PENSACOLA      LGT RAIN  74  71  91 N5        29.91R
DESTIN         CLOUDY    80  67  64 CALM      29.90F
PANAMA CITY    CLOUDY    77  73  87 E3        29.92S
APPALACHICOLA  CLOUDY    77  70  79 N5        29.91S
$$



USA.gov is the U.S. government's official web portal to all federal, state and local government web resources and services.